Time,TemperatureF,DewpointF,PressureIn,WindDirection,WindDirectionDegrees,WindSpeedMPH,WindSpeedGustMPH,Humidity,HourlyPrecipIn,Conditions,Clouds,dailyrainin,SoftwareType,DateUTC
2013-05-03 00:00:00,54.5,41.3,30.27,ENE,76,0.0,0.0,61,-99.99,,,-99.99,VWS V14.01,2013-05-03 04:00:00,
2013-05-03 04:45:00,44.5,39.7,30.26,ESE,110,0.0,0.0,83,-99.99,,,-99.99,VWS V14.01,2013-05-03 08:45:00,
2013-05-03 04:46:00,44.5,39.7,30.26,ESE,110,0.0,0.0,83,-99.99,,,-99.99,VWS V14.01,2013-05-03 08:46:00,
2013-05-03 04:51:00,44.2,39.5,30.26,ESE,110,0.0,0.0,83,-99.99,,,-99.99,VWS V14.01,2013-05-03 08:51:00,
2013-05-03 04:56:00,44.0,39.7,30.27,ESE,110,0.0,0.0,85,-99.99,,,-99.99,VWS V14.01,2013-05-03 08:56:00,
2013-05-03 05:01:00,43.7,39.7,30.27,ESE,110,0.0,0.0,86,-99.99,,,-99.99,VWS V14.01,2013-05-03 09:01:00,
2013-05-03 05:06:00,43.4,39.6,30.27,ESE,110,0.0,0.0,86,-99.99,,,-99.99,VWS V14.01,2013-05-03 09:06:00,
2013-05-03 05:11:00,43.3,39.5,30.27,ESE,110,0.0,0.0,86,-99.99,,,-99.99,VWS V14.01,2013-05-03 09:11:00,
2013-05-03 05:15:00,43.4,39.5,30.27,ESE,110,0.0,0.0,86,-99.99,,,-99.99,VWS V14.01,2013-05-03 09:15:00,
2013-05-03 05:20:00,43.5,39.6,30.27,ESE,110,0.0,0.0,86,-99.99,,,-99.99,VWS V14.01,2013-05-03 09:20:00,
2013-05-03 05:25:00,43.4,39.4,30.27,ESE,110,0.0,0.0,86,-99.99,,,-99.99,VWS V14.01,2013-05-03 09:25:00,
2013-05-03 05:30:00,43.4,39.4,30.27,ESE,110,0.0,0.0,86,-99.99,,,-99.99,VWS V14.01,2013-05-03 09:30:00,
2013-05-03 05:35:00,43.2,39.4,30.27,ESE,110,0.0,0.0,86,-99.99,,,-99.99,VWS V14.01,2013-05-03 09:35:00,
2013-05-03 05:40:00,43.2,39.4,30.26,ESE,110,0.0,0.0,86,-99.99,,,-99.99,VWS V14.01,2013-05-03 09:40:00,
2013-05-03 05:45:00,43.3,39.5,30.27,ESE,110,0.0,0.0,86,-99.99,,,-99.99,VWS V14.01,2013-05-03 09:45:00,
2013-05-03 05:50:00,43.3,39.5,30.27,ESE,110,0.0,0.0,86,-99.99,,,-99.99,VWS V14.01,2013-05-03 09:50:00,
2013-05-03 05:55:00,43.0,39.3,30.27,ESE,110,0.0,0.0,87,-99.99,,,-99.99,VWS V14.01,2013-05-03 09:55:00,
2013-05-03 06:00:00,42.9,39.4,30.27,ESE,110,0.0,0.0,87,-99.99,,,-99.99,VWS V14.01,2013-05-03 10:00:00,
2013-05-03 06:05:00,42.9,39.4,30.28,ESE,110,0.0,0.0,87,-99.99,,,-99.99,VWS V14.01,2013-05-03 10:05:00,
2013-05-03 06:10:00,43.0,39.4,30.28,ESE,110,0.0,0.0,87,-99.99,,,-99.99,VWS V14.01,2013-05-03 10:10:00,
2013-05-03 06:15:00,43.1,39.4,30.28,ESE,110,0.0,0.0,87,-99.99,,,-99.99,VWS V14.01,2013-05-03 10:15:00,
2013-05-03 06:20:00,43.2,39.4,30.28,ESE,110,0.0,0.0,86,-99.99,,,-99.99,VWS V14.01,2013-05-03 10:20:00,
2013-05-03 06:25:00,43.1,39.3,30.28,ESE,110,0.0,0.0,86,-99.99,,,-99.99,VWS V14.01,2013-05-03 10:25:00,
2013-05-03 06:30:00,43.0,39.2,30.28,ESE,110,0.0,0.0,86,-99.99,,,-99.99,VWS V14.01,2013-05-03 10:30:00,
2013-05-03 06:35:00,43.0,39.3,30.28,ESE,110,0.0,0.0,87,-99.99,,,-99.99,VWS V14.01,2013-05-03 10:35:00,
2013-05-03 06:40:00,42.8,39.3,30.28,ESE,110,0.0,0.0,88,-99.99,,,-99.99,VWS V14.01,2013-05-03 10:40:00,
2013-05-03 06:45:00,42.6,39.3,30.28,ESE,110,0.0,0.0,88,-99.99,,,-99.99,VWS V14.01,2013-05-03 10:45:00,
2013-05-03 06:50:00,42.6,39.4,30.29,ESE,110,0.0,0.0,88,-99.99,,,-99.99,VWS V14.01,2013-05-03 10:50:00,
2013-05-03 06:55:00,42.8,39.7,30.29,ESE,110,0.0,0.0,89,-99.99,,,-99.99,VWS V14.01,2013-05-03 10:55:00,
2013-05-03 07:00:00,42.8,39.8,30.29,ESE,110,0.0,0.0,89,-99.99,,,-99.99,VWS V14.01,2013-05-03 11:00:00,
2013-05-03 07:05:00,43.3,40.5,30.29,ESE,110,0.0,0.0,90,-99.99,,,-99.99,VWS V14.01,2013-05-03 11:05:00,
2013-05-03 07:10:00,43.9,40.6,30.29,ESE,110,0.0,0.0,88,-99.99,,,-99.99,VWS V14.01,2013-05-03 11:10:00,
2013-05-03 07:15:00,44.5,40.7,30.29,ESE,110,0.0,0.0,86,-99.99,,,-99.99,VWS V14.01,2013-05-03 11:15:00,
2013-05-03 07:20:00,45.0,40.7,30.29,ESE,110,0.0,0.0,85,-99.99,,,-99.99,VWS V14.01,2013-05-03 11:20:00,
2013-05-03 07:25:00,45.4,40.7,30.29,ESE,110,0.0,0.0,84,-99.99,,,-99.99,VWS V14.01,2013-05-03 11:25:00,
2013-05-03 07:30:00,45.8,40.9,30.29,ESE,110,0.0,0.0,83,-99.99,,,-99.99,VWS V14.01,2013-05-03 11:30:00,
2013-05-03 07:35:00,46.3,41.3,30.29,ESE,110,0.0,0.0,82,-99.99,,,-99.99,VWS V14.01,2013-05-03 11:35:00,
2013-05-03 07:40:00,46.7,41.3,30.29,ESE,110,0.0,0.0,81,-99.99,,,-99.99,VWS V14.01,2013-05-03 11:40:00,
2013-05-03 07:45:00,47.2,41.4,30.29,ESE,110,0.0,0.0,80,-99.99,,,-99.99,VWS V14.01,2013-05-03 11:45:00,
2013-05-03 07:50:00,47.3,41.3,30.29,ESE,110,0.0,0.0,79,-99.99,,,-99.99,VWS V14.01,2013-05-03 11:50:00,
2013-05-03 07:55:00,47.4,41.2,30.30,ESE,110,0.0,0.0,79,-99.99,,,-99.99,VWS V14.01,2013-05-03 11:55:00,
2013-05-03 08:00:00,47.5,41.2,30.30,ESE,110,0.0,0.0,79,-99.99,,,-99.99,VWS V14.01,2013-05-03 12:00:00,
2013-05-03 08:05:00,47.6,41.3,30.30,ESE,110,0.0,0.0,79,-99.99,,,-99.99,VWS V14.01,2013-05-03 12:05:00,
2013-05-03 08:10:00,47.8,41.5,30.30,ESE,110,0.0,0.0,79,-99.99,,,-99.99,VWS V14.01,2013-05-03 12:10:00,
2013-05-03 08:15:00,48.1,41.8,30.30,ESE,110,0.0,0.0,79,-99.99,,,-99.99,VWS V14.01,2013-05-03 12:15:00,
2013-05-03 08:20:00,48.4,41.8,30.30,ESE,110,0.0,0.0,78,-99.99,,,-99.99,VWS V14.01,2013-05-03 12:20:00,
2013-05-03 08:25:00,48.8,42.0,30.30,ESE,110,0.0,0.0,77,-99.99,,,-99.99,VWS V14.01,2013-05-03 12:25:00,
2013-05-03 08:30:00,49.5,42.3,30.30,ESE,110,0.0,0.0,76,-99.99,,,-99.99,VWS V14.01,2013-05-03 12:30:00,
2013-05-03 08:35:00,50.1,42.6,30.30,ESE,110,0.0,0.0,75,-99.99,,,-99.99,VWS V14.01,2013-05-03 12:35:00,
2013-05-03 08:40:00,51.0,42.9,30.30,ESE,110,0.0,0.0,74,-99.99,,,-99.99,VWS V14.01,2013-05-03 12:40:00,
2013-05-03 08:45:00,52.1,43.1,30.30,SE,128,4.7,5.9,71,-99.99,,,-99.99,VWS V14.01,2013-05-03 12:45:00,
2013-05-03 08:50:00,53.2,42.9,30.30,East,101,0.0,0.0,68,-99.99,,,-99.99,VWS V14.01,2013-05-03 12:50:00,
2013-05-03 08:55:00,54.1,43.0,30.30,SE,128,0.0,0.0,66,-99.99,,,-99.99,VWS V14.01,2013-05-03 12:55:00,
2013-05-03 09:00:00,54.8,43.0,30.30,SE,128,0.0,0.0,64,-99.99,,,-99.99,VWS V14.01,2013-05-03 13:00:00,
2013-05-03 09:05:00,55.7,43.3,30.29,SE,128,0.0,0.0,63,-99.99,,,-99.99,VWS V14.01,2013-05-03 13:05:00,
2013-05-03 09:10:00,56.7,42.2,30.29,East,98,4.4,8.8,58,-99.99,,,-99.99,VWS V14.01,2013-05-03 13:10:00,
2013-05-03 09:15:00,57.7,41.0,30.29,ESE,107,3.1,8.0,54,-99.99,,,-99.99,VWS V14.01,2013-05-03 13:15:00,
2013-05-03 09:20:00,58.7,40.6,30.29,SE,138,7.2,12.6,51,-99.99,,,-99.99,VWS V14.01,2013-05-03 13:20:00,
2013-05-03 09:25:00,59.1,33.7,30.29,ESE,118,15.8,15.8,38,-99.99,,,-99.99,VWS V14.01,2013-05-03 13:25:00,
2013-05-03 09:30:00,59.3,32.3,30.29,SE,134,7.1,16.3,36,-99.99,,,-99.99,VWS V14.01,2013-05-03 13:30:00,
2013-05-03 09:35:00,59.5,31.9,30.29,SE,132,2.9,11.3,35,-99.99,,,-99.99,VWS V14.01,2013-05-03 13:35:00,
2013-05-03 09:40:00,59.7,31.3,30.29,ESE,122,7.8,11.4,34,-99.99,,,-99.99,VWS V14.01,2013-05-03 13:40:00,
2013-05-03 09:45:00,60.1,30.4,30.29,ESE,107,12.5,14.5,32,-99.99,,,-99.99,VWS V14.01,2013-05-03 13:45:00,
2013-05-03 09:50:00,60.2,30.2,30.29,SE,132,4.4,11.5,32,-99.99,,,-99.99,VWS V14.01,2013-05-03 13:50:00,
2013-05-03 09:55:00,60.3,31.0,30.29,East,93,0.0,9.6,33,-99.99,,,-99.99,VWS V14.01,2013-05-03 13:55:00,
2013-05-03 10:00:00,60.4,31.1,30.30,SE,131,7.6,8.7,33,-99.99,,,-99.99,VWS V14.01,2013-05-03 14:00:00,
2013-05-03 10:05:00,60.3,30.8,30.30,SE,139,4.6,14.9,33,-99.99,,,-99.99,VWS V14.01,2013-05-03 14:05:00,
2013-05-03 10:10:00,60.4,30.7,30.30,SSE,158,9.6,10.9,32,-99.99,,,-99.99,VWS V14.01,2013-05-03 14:10:00,
2013-05-03 10:15:00,60.2,30.6,30.30,ESE,110,4.3,11.2,32,-99.99,,,-99.99,VWS V14.01,2013-05-03 14:15:00,
2013-05-03 10:20:00,60.1,31.3,30.31,South,177,5.8,9.0,34,-99.99,,,-99.99,VWS V14.01,2013-05-03 14:20:00,
2013-05-03 10:25:00,60.5,31.1,30.31,ESE,104,5.7,13.3,33,-99.99,,,-99.99,VWS V14.01,2013-05-03 14:25:00,
2013-05-03 10:30:00,61.1,32.4,30.31,ESE,111,8.0,9.9,34,-99.99,,,-99.99,VWS V14.01,2013-05-03 14:30:00,
2013-05-03 10:35:00,61.0,29.0,30.30,ESE,110,11.5,13.1,30,-99.99,,,-99.99,VWS V14.01,2013-05-03 14:35:00,
2013-05-03 10:40:00,61.3,29.6,30.30,East,91,14.9,18.5,30,-99.99,,,-99.99,VWS V14.01,2013-05-03 14:40:00,
2013-05-03 10:45:00,61.2,28.9,30.30,East,91,6.2,9.8,29,-99.99,,,-99.99,VWS V14.01,2013-05-03 14:45:00,
2013-05-03 10:50:00,61.6,29.9,30.30,ESE,115,8.6,13.0,30,-99.99,,,-99.99,VWS V14.01,2013-05-03 14:50:00,
2013-05-03 10:55:00,62.4,29.9,30.30,SSW,200,5.4,10.7,29,-99.99,,,-99.99,VWS V14.01,2013-05-03 14:55:00,
2013-05-03 10:59:00,62.5,30.8,30.30,SE,124,14.1,14.1,30,-99.99,,,-99.99,VWS V14.01,2013-05-03 14:59:00,
2013-05-03 11:04:00,62.7,30.5,30.30,East,100,0.0,7.0,30,-99.99,,,-99.99,VWS V14.01,2013-05-03 15:04:00,
2013-05-03 11:09:00,62.7,30.3,30.30,ESE,115,9.9,13.0,29,-99.99,,,-99.99,VWS V14.01,2013-05-03 15:09:00,
2013-05-03 11:14:00,62.6,30.8,30.30,SE,128,9.8,9.8,30,-99.99,,,-99.99,VWS V14.01,2013-05-03 15:14:00,
2013-05-03 11:19:00,62.6,30.8,30.30,SSE,160,8.1,12.3,30,-99.99,,,-99.99,VWS V14.01,2013-05-03 15:19:00,
2013-05-03 11:24:00,62.9,30.2,30.30,ESE,107,12.7,16.6,29,-99.99,,,-99.99,VWS V14.01,2013-05-03 15:24:00,
2013-05-03 11:29:00,63.4,31.1,30.30,SSE,163,0.0,5.7,30,-99.99,,,-99.99,VWS V14.01,2013-05-03 15:29:00,
2013-05-03 11:34:00,63.6,31.1,30.30,East,96,5.3,9.5,29,-99.99,,,-99.99,VWS V14.01,2013-05-03 15:34:00,
2013-05-03 11:39:00,64.0,31.0,30.30,ESE,104,7.6,13.7,29,-99.99,,,-99.99,VWS V14.01,2013-05-03 15:39:00,
2013-05-03 11:44:00,64.2,29.6,30.30,East,86,10.7,12.6,27,-99.99,,,-99.99,VWS V14.01,2013-05-03 15:44:00,
2013-05-03 11:49:00,63.8,29.5,30.30,SSE,158,10.0,16.3,27,-99.99,,,-99.99,VWS V14.01,2013-05-03 15:49:00,
2013-05-03 11:54:00,64.0,31.0,30.30,ESE,122,8.0,8.4,29,-99.99,,,-99.99,VWS V14.01,2013-05-03 15:54:00,
2013-05-03 11:59:00,64.2,31.1,30.30,SE,127,9.8,18.1,29,-99.99,,,-99.99,VWS V14.01,2013-05-03 15:59:00,
2013-05-03 12:04:00,63.7,31.5,30.30,SE,124,4.5,10.2,30,-99.99,,,-99.99,VWS V14.01,2013-05-03 16:04:00,
2013-05-03 12:09:00,63.9,32.9,30.29,ESE,114,7.0,12.1,31,-99.99,,,-99.99,VWS V14.01,2013-05-03 16:09:00,
2013-05-03 12:14:00,64.2,33.0,30.29,SSE,150,6.4,6.4,31,-99.99,,,-99.99,VWS V14.01,2013-05-03 16:14:00,
2013-05-03 12:19:00,64.5,33.1,30.29,SSE,153,0.0,4.3,31,-99.99,,,-99.99,VWS V14.01,2013-05-03 16:19:00,
2013-05-03 12:24:00,64.6,33.9,30.29,SSE,149,4.2,4.3,32,-99.99,,,-99.99,VWS V14.01,2013-05-03 16:24:00,
2013-05-03 12:29:00,64.7,34.4,30.29,SE,127,8.7,8.7,32,-99.99,,,-99.99,VWS V14.01,2013-05-03 16:29:00,
2013-05-03 12:34:00,64.8,34.7,30.29,SSW,201,0.0,5.2,32,-99.99,,,-99.99,VWS V14.01,2013-05-03 16:34:00,
2013-05-03 12:39:00,65.1,35.4,30.29,SE,135,3.2,7.1,33,-99.99,,,-99.99,VWS V14.01,2013-05-03 16:39:00,
2013-05-03 12:44:00,65.3,35.6,30.28,South,180,7.4,9.1,33,-99.99,,,-99.99,VWS V14.01,2013-05-03 16:44:00,
2013-05-03 12:49:00,65.4,35.6,30.29,South,174,0.0,4.2,33,-99.99,,,-99.99,VWS V14.01,2013-05-03 16:49:00,
2013-05-03 12:54:00,65.7,36.0,30.28,SE,132,4.2,6.4,33,-99.99,,,-99.99,VWS V14.01,2013-05-03 16:54:00,
2013-05-03 12:59:00,65.9,35.7,30.28,East,97,0.0,3.0,33,-99.99,,,-99.99,VWS V14.01,2013-05-03 16:59:00,
2013-05-03 13:04:00,66.0,35.8,30.28,SE,135,4.2,5.1,33,-99.99,,,-99.99,VWS V14.01,2013-05-03 17:04:00,
2013-05-03 13:09:00,66.1,36.3,30.28,SSE,148,7.9,16.2,33,-99.99,,,-99.99,VWS V14.01,2013-05-03 17:09:00,
2013-05-03 13:14:00,66.6,36.8,30.28,SSE,152,0.0,4.8,33,-99.99,,,-99.99,VWS V14.01,2013-05-03 17:14:00,
2013-05-03 13:19:00,67.0,36.5,30.28,East,93,9.6,16.5,32,-99.99,,,-99.99,VWS V14.01,2013-05-03 17:19:00,
2013-05-03 13:24:00,66.7,36.4,30.28,ESE,104,6.3,9.0,33,-99.99,,,-99.99,VWS V14.01,2013-05-03 17:24:00,
2013-05-03 13:29:00,66.6,36.7,30.28,South,183,3.2,3.2,33,-99.99,,,-99.99,VWS V14.01,2013-05-03 17:29:00,
2013-05-03 13:34:00,66.6,37.0,30.27,SSE,152,7.7,7.7,34,-99.99,,,-99.99,VWS V14.01,2013-05-03 17:34:00,
2013-05-03 13:39:00,66.5,37.2,30.27,ESE,107,7.0,11.4,34,-99.99,,,-99.99,VWS V14.01,2013-05-03 17:39:00,
2013-05-03 13:44:00,66.4,38.0,30.27,East,101,5.2,5.2,35,-99.99,,,-99.99,VWS V14.01,2013-05-03 17:44:00,
2013-05-03 13:49:00,66.7,38.2,30.27,SE,142,0.0,0.0,35,-99.99,,,-99.99,VWS V14.01,2013-05-03 17:49:00,
2013-05-03 13:54:00,67.4,38.1,30.27,SE,131,5.4,7.8,34,-99.99,,,-99.99,VWS V14.01,2013-05-03 17:54:00,
2013-05-03 13:59:00,67.5,38.0,30.27,ENE,76,5.1,5.7,34,-99.99,,,-99.99,VWS V14.01,2013-05-03 17:59:00,
2013-05-03 14:04:00,67.8,38.3,30.27,ESE,104,0.0,0.0,34,-99.99,,,-99.99,VWS V14.01,2013-05-03 18:04:00,
2013-05-03 14:09:00,67.8,38.0,30.27,East,83,6.2,7.1,33,-99.99,,,-99.99,VWS V14.01,2013-05-03 18:09:00,
2013-05-03 14:14:00,68.0,38.5,30.27,SE,134,5.1,9.9,34,-99.99,,,-99.99,VWS V14.01,2013-05-03 18:14:00,
2013-05-03 14:19:00,68.3,38.9,30.27,SE,131,3.2,3.5,34,-99.99,,,-99.99,VWS V14.01,2013-05-03 18:19:00,
2013-05-03 14:24:00,68.2,38.9,30.27,ESE,103,0.0,9.8,34,-99.99,,,-99.99,VWS V14.01,2013-05-03 18:24:00,
2013-05-03 14:29:00,67.9,39.3,30.27,SE,129,4.3,11.6,35,-99.99,,,-99.99,VWS V14.01,2013-05-03 18:29:00,
2013-05-03 14:34:00,67.6,39.8,30.27,SE,139,8.8,15.9,36,-99.99,,,-99.99,VWS V14.01,2013-05-03 18:34:00,
2013-05-03 14:39:00,67.5,40.1,30.26,SSE,158,5.7,10.5,37,-99.99,,,-99.99,VWS V14.01,2013-05-03 18:39:00,
2013-05-03 14:44:00,68.0,40.3,30.26,ESE,121,8.4,8.8,36,-99.99,,,-99.99,VWS V14.01,2013-05-03 18:44:00,
2013-05-03 14:49:00,68.1,39.8,30.26,SE,132,0.0,8.3,36,-99.99,,,-99.99,VWS V14.01,2013-05-03 18:49:00,
2013-05-03 14:54:00,68.3,40.6,30.26,ESE,118,5.8,6.6,36,-99.99,,,-99.99,VWS V14.01,2013-05-03 18:54:00,
2013-05-03 14:59:00,68.3,40.5,30.26,ESE,108,7.7,9.5,36,-99.99,,,-99.99,VWS V14.01,2013-05-03 18:59:00,
2013-05-03 15:04:00,68.3,40.8,30.26,SE,124,1.9,8.6,37,-99.99,,,-99.99,VWS V14.01,2013-05-03 19:04:00,
2013-05-03 15:09:00,68.6,41.0,30.25,SE,127,13.5,13.5,37,-99.99,,,-99.99,VWS V14.01,2013-05-03 19:09:00,
2013-05-03 15:14:00,68.4,40.7,30.26,ESE,114,7.0,7.0,36,-99.99,,,-99.99,VWS V14.01,2013-05-03 19:14:00,
2013-05-03 15:19:00,68.1,41.0,30.26,SSE,156,6.4,7.0,37,-99.99,,,-99.99,VWS V14.01,2013-05-03 19:19:00,
2013-05-03 15:24:00,68.0,41.1,30.25,SE,145,0.0,8.6,38,-99.99,,,-99.99,VWS V14.01,2013-05-03 19:24:00,
2013-05-03 15:29:00,67.8,40.8,30.25,SE,125,4.7,11.9,37,-99.99,,,-99.99,VWS V14.01,2013-05-03 19:29:00,
2013-05-03 15:34:00,67.8,41.3,30.25,SE,125,8.8,11.8,38,-99.99,,,-99.99,VWS V14.01,2013-05-03 19:34:00,
2013-05-03 15:43:00,68.2,41.2,30.25,SE,132,3.5,3.5,37,-99.99,,,-99.99,VWS V14.01,2013-05-03 19:43:00,
2013-05-03 15:48:00,68.1,41.4,30.25,SE,129,3.2,7.8,38,-99.99,,,-99.99,VWS V14.01,2013-05-03 19:48:00,
2013-05-03 15:53:00,68.1,41.2,30.25,ESE,121,4.6,6.4,37,-99.99,,,-99.99,VWS V14.01,2013-05-03 19:53:00,
2013-05-03 15:58:00,68.2,41.7,30.25,South,179,6.0,8.7,38,-99.99,,,-99.99,VWS V14.01,2013-05-03 19:58:00,
2013-05-03 16:03:00,67.9,41.3,30.25,East,94,5.5,5.5,38,-99.99,,,-99.99,VWS V14.01,2013-05-03 20:03:00,
2013-05-03 16:08:00,67.4,41.3,30.25,East,94,5.5,10.2,38,-99.99,,,-99.99,VWS V14.01,2013-05-03 20:08:00,
2013-05-03 16:13:00,67.3,41.5,30.25,SE,131,5.5,7.8,39,-99.99,,,-99.99,VWS V14.01,2013-05-03 20:13:00,
2013-05-03 16:18:00,67.3,41.3,30.25,SE,127,2.7,8.8,39,-99.99,,,-99.99,VWS V14.01,2013-05-03 20:18:00,
2013-05-03 16:23:00,67.5,41.6,30.25,SSE,160,4.8,7.6,39,-99.99,,,-99.99,VWS V14.01,2013-05-03 20:23:00,
2013-05-03 16:28:00,67.6,41.5,30.25,ESE,120,4.9,9.6,39,-99.99,,,-99.99,VWS V14.01,2013-05-03 20:28:00,
2013-05-03 16:33:00,67.3,41.4,30.25,SE,146,6.8,15.6,39,-99.99,,,-99.99,VWS V14.01,2013-05-03 20:33:00,
2013-05-03 16:38:00,67.2,41.9,30.25,SSE,149,7.0,8.8,40,-99.99,,,-99.99,VWS V14.01,2013-05-03 20:38:00,
2013-05-03 16:43:00,67.1,41.5,30.25,SE,129,3.4,9.5,39,-99.99,,,-99.99,VWS V14.01,2013-05-03 20:43:00,
2013-05-03 16:48:00,67.2,41.8,30.24,ESE,111,9.3,13.0,40,-99.99,,,-99.99,VWS V14.01,2013-05-03 20:48:00,
2013-05-03 16:53:00,67.1,41.5,30.25,SE,125,6.0,12.2,39,-99.99,,,-99.99,VWS V14.01,2013-05-03 20:53:00,
2013-05-03 16:58:00,67.2,41.8,30.25,South,183,5.6,8.2,40,-99.99,,,-99.99,VWS V14.01,2013-05-03 20:58:00,
2013-05-03 17:03:00,67.3,41.4,30.24,SSE,162,5.2,5.7,39,-99.99,,,-99.99,VWS V14.01,2013-05-03 21:03:00,
2013-05-03 17:08:00,67.2,41.2,30.25,SE,131,3.0,8.5,39,-99.99,,,-99.99,VWS V14.01,2013-05-03 21:08:00,
2013-05-03 17:13:00,67.1,41.2,30.25,SSE,148,3.5,6.6,39,-99.99,,,-99.99,VWS V14.01,2013-05-03 21:13:00,
2013-05-03 17:18:00,66.9,40.8,30.25,SE,145,7.8,10.1,38,-99.99,,,-99.99,VWS V14.01,2013-05-03 21:18:00,
2013-05-03 17:23:00,67.0,41.5,30.24,East,83,0.0,6.0,39,-99.99,,,-99.99,VWS V14.01,2013-05-03 21:23:00,
2013-05-03 17:28:00,67.0,41.2,30.25,SE,139,7.1,12.0,39,-99.99,,,-99.99,VWS V14.01,2013-05-03 21:28:00,
2013-05-03 17:33:00,67.1,41.3,30.25,SE,138,0.0,9.6,39,-99.99,,,-99.99,VWS V14.01,2013-05-03 21:33:00,
2013-05-03 17:38:00,67.0,41.0,30.25,East,93,6.9,8.9,39,-99.99,,,-99.99,VWS V14.01,2013-05-03 21:38:00,
2013-05-03 17:42:00,66.8,41.1,30.25,South,170,6.7,9.8,39,-99.99,,,-99.99,VWS V14.01,2013-05-03 21:42:00,
2013-05-03 17:47:00,66.6,41.2,30.25,SE,132,0.0,6.3,39,-99.99,,,-99.99,VWS V14.01,2013-05-03 21:47:00,
2013-05-03 17:52:00,66.4,40.9,30.25,South,169,9.9,12.1,39,-99.99,,,-99.99,VWS V14.01,2013-05-03 21:52:00,
2013-05-03 17:57:00,66.2,41.2,30.25,ESE,120,8.0,8.4,40,-99.99,,,-99.99,VWS V14.01,2013-05-03 21:57:00,
2013-05-03 18:02:00,66.1,41.4,30.25,SE,142,9.6,14.0,40,-99.99,,,-99.99,VWS V14.01,2013-05-03 22:02:00,
2013-05-03 18:07:00,66.2,41.6,30.25,SE,138,5.9,8.3,41,-99.99,,,-99.99,VWS V14.01,2013-05-03 22:07:00,
2013-05-03 18:12:00,66.0,41.6,30.25,SE,142,0.0,3.5,41,-99.99,,,-99.99,VWS V14.01,2013-05-03 22:12:00,
2013-05-03 18:17:00,66.1,41.4,30.25,SE,124,6.1,9.8,40,-99.99,,,-99.99,VWS V14.01,2013-05-03 22:17:00,
2013-05-03 18:22:00,66.0,41.4,30.25,SE,138,9.9,11.9,41,-99.99,,,-99.99,VWS V14.01,2013-05-03 22:22:00,
2013-05-03 18:27:00,65.9,41.4,30.25,SE,141,4.7,7.2,41,-99.99,,,-99.99,VWS V14.01,2013-05-03 22:27:00,
2013-05-03 18:32:00,65.7,41.6,30.25,SSE,149,7.5,13.5,41,-99.99,,,-99.99,VWS V14.01,2013-05-03 22:32:00,
2013-05-03 18:37:00,65.6,41.7,30.25,ESE,107,6.3,8.4,42,-99.99,,,-99.99,VWS V14.01,2013-05-03 22:37:00,
2013-05-03 18:42:00,65.5,41.6,30.25,ESE,120,5.7,7.1,42,-99.99,,,-99.99,VWS V14.01,2013-05-03 22:42:00,
2013-05-03 18:47:00,65.5,41.4,30.25,South,172,0.0,0.0,41,-99.99,,,-99.99,VWS V14.01,2013-05-03 22:47:00,
2013-05-03 18:52:00,65.2,41.2,30.25,ESE,115,9.0,9.0,42,-99.99,,,-99.99,VWS V14.01,2013-05-03 22:52:00,
2013-05-03 18:57:00,65.0,41.2,30.25,ESE,110,6.0,8.6,42,-99.99,,,-99.99,VWS V14.01,2013-05-03 22:57:00,
2013-05-03 19:02:00,65.0,41.6,30.25,SSE,158,2.5,5.5,42,-99.99,,,-99.99,VWS V14.01,2013-05-03 23:02:00,
2013-05-03 19:07:00,65.0,41.7,30.25,SE,138,3.3,3.3,42,-99.99,,,-99.99,VWS V14.01,2013-05-03 23:07:00,
2013-05-03 19:12:00,65.0,41.8,30.25,SSE,149,6.4,7.7,43,-99.99,,,-99.99,VWS V14.01,2013-05-03 23:12:00,
2013-05-03 19:17:00,64.8,41.6,30.25,East,84,4.8,4.8,43,-99.99,,,-99.99,VWS V14.01,2013-05-03 23:17:00,
2013-05-03 19:22:00,64.5,41.4,30.26,ESE,122,5.0,5.0,43,-99.99,,,-99.99,VWS V14.01,2013-05-03 23:22:00,
2013-05-03 19:27:00,64.3,41.2,30.25,ESE,111,5.5,7.6,43,-99.99,,,-99.99,VWS V14.01,2013-05-03 23:27:00,
2013-05-03 19:32:00,64.0,41.1,30.25,ESE,117,4.7,6.0,43,-99.99,,,-99.99,VWS V14.01,2013-05-03 23:32:00,
2013-05-03 19:37:00,63.7,41.2,30.26,SE,143,3.5,8.1,44,-99.99,,,-99.99,VWS V14.01,2013-05-03 23:37:00,
2013-05-03 19:42:00,63.5,41.3,30.26,East,86,0.0,3.1,44,-99.99,,,-99.99,VWS V14.01,2013-05-03 23:42:00,
2013-05-03 19:47:00,63.3,41.2,30.26,East,89,3.4,8.8,44,-99.99,,,-99.99,VWS V14.01,2013-05-03 23:47:00,
2013-05-03 19:52:00,63.1,41.2,30.26,ESE,121,4.2,4.2,45,-99.99,,,-99.99,VWS V14.01,2013-05-03 23:52:00,
2013-05-03 19:57:00,62.9,41.1,30.26,SE,132,0.0,4.6,45,-99.99,,,-99.99,VWS V14.01,2013-05-03 23:57:00,
2013-05-03 20:02:00,62.7,41.0,30.26,East,89,4.2,7.1,45,-99.99,,,-99.99,VWS V14.01,2013-05-04 00:02:00,
2013-05-03 20:07:00,62.5,41.2,30.26,ESE,105,0.0,0.0,46,-99.99,,,-99.99,VWS V14.01,2013-05-04 00:07:00,
2013-05-03 20:12:00,62.3,41.2,30.26,ESE,118,0.0,4.8,46,-99.99,,,-99.99,VWS V14.01,2013-05-04 00:12:00,
2013-05-03 20:17:00,61.9,41.0,30.26,East,96,0.0,4.8,46,-99.99,,,-99.99,VWS V14.01,2013-05-04 00:17:00,
2013-05-03 20:22:00,61.8,41.0,30.26,ESE,121,7.8,7.8,46,-99.99,,,-99.99,VWS V14.01,2013-05-04 00:22:00,
2013-05-03 20:27:00,61.6,41.2,30.26,SE,139,2.7,4.3,47,-99.99,,,-99.99,VWS V14.01,2013-05-04 00:27:00,
2013-05-03 20:32:00,61.4,41.2,30.26,ESE,111,4.5,4.5,47,-99.99,,,-99.99,VWS V14.01,2013-05-04 00:32:00,
2013-05-03 20:37:00,61.2,41.1,30.26,ENE,63,0.0,0.0,48,-99.99,,,-99.99,VWS V14.01,2013-05-04 00:37:00,
2013-05-03 20:42:00,61.0,40.8,30.26,SSE,149,0.0,5.2,47,-99.99,,,-99.99,VWS V14.01,2013-05-04 00:42:00,
2013-05-03 20:47:00,60.8,40.8,30.26,ESE,121,0.0,3.0,48,-99.99,,,-99.99,VWS V14.01,2013-05-04 00:47:00,
2013-05-03 20:52:00,60.7,40.9,30.26,SE,132,0.0,0.0,48,-99.99,,,-99.99,VWS V14.01,2013-05-04 00:52:00,
2013-05-03 20:57:00,60.6,40.9,30.27,SE,132,0.0,0.0,48,-99.99,,,-99.99,VWS V14.01,2013-05-04 00:57:00,
2013-05-03 21:02:00,60.4,40.9,30.27,SE,132,0.0,0.0,48,-99.99,,,-99.99,VWS V14.01,2013-05-04 01:02:00,
2013-05-03 21:07:00,60.2,40.9,30.27,SE,132,0.0,0.0,49,-99.99,,,-99.99,VWS V14.01,2013-05-04 01:07:00,
2013-05-03 21:12:00,60.0,41.1,30.27,SE,132,0.0,0.0,50,-99.99,,,-99.99,VWS V14.01,2013-05-04 01:12:00,
2013-05-03 21:17:00,59.7,41.0,30.27,SE,132,0.0,0.0,50,-99.99,,,-99.99,VWS V14.01,2013-05-04 01:17:00,
2013-05-03 21:22:00,59.4,40.9,30.27,SE,132,0.0,0.0,50,-99.99,,,-99.99,VWS V14.01,2013-05-04 01:22:00,
2013-05-03 21:27:00,59.2,40.7,30.27,SE,132,0.0,0.0,50,-99.99,,,-99.99,VWS V14.01,2013-05-04 01:27:00,
2013-05-03 21:32:00,58.9,40.7,30.27,SE,132,0.0,0.0,51,-99.99,,,-99.99,VWS V14.01,2013-05-04 01:32:00,
2013-05-03 21:37:00,58.7,41.0,30.27,SE,132,0.0,0.0,52,-99.99,,,-99.99,VWS V14.01,2013-05-04 01:37:00,
2013-05-03 21:42:00,58.5,40.9,30.27,SE,132,0.0,0.0,52,-99.99,,,-99.99,VWS V14.01,2013-05-04 01:42:00,
2013-05-03 21:47:00,58.4,40.9,30.27,SE,132,0.0,0.0,52,-99.99,,,-99.99,VWS V14.01,2013-05-04 01:47:00,
2013-05-03 21:52:00,58.4,41.1,30.27,SE,132,0.0,0.0,52,-99.99,,,-99.99,VWS V14.01,2013-05-04 01:52:00,
2013-05-03 21:57:00,58.2,40.9,30.27,SE,132,0.0,0.0,52,-99.99,,,-99.99,VWS V14.01,2013-05-04 01:57:00,
2013-05-03 22:02:00,58.0,40.8,30.27,SE,132,0.0,0.0,53,-99.99,,,-99.99,VWS V14.01,2013-05-04 02:02:00,
2013-05-03 22:07:00,57.6,40.7,30.28,SE,132,0.0,0.0,53,-99.99,,,-99.99,VWS V14.01,2013-05-04 02:07:00,
2013-05-03 22:12:00,57.3,40.8,30.28,SE,132,0.0,0.0,54,-99.99,,,-99.99,VWS V14.01,2013-05-04 02:12:00,
2013-05-03 22:17:00,57.2,40.8,30.28,SE,132,0.0,0.0,54,-99.99,,,-99.99,VWS V14.01,2013-05-04 02:17:00,
2013-05-03 22:22:00,57.1,40.9,30.28,SE,132,0.0,0.0,54,-99.99,,,-99.99,VWS V14.01,2013-05-04 02:22:00,
2013-05-03 22:27:00,56.8,40.8,30.28,SE,132,0.0,0.0,55,-99.99,,,-99.99,VWS V14.01,2013-05-04 02:27:00,
2013-05-03 22:32:00,56.7,40.9,30.28,SE,132,0.0,0.0,55,-99.99,,,-99.99,VWS V14.01,2013-05-04 02:32:00,
2013-05-03 22:37:00,56.6,40.8,30.28,SE,132,0.0,0.0,55,-99.99,,,-99.99,VWS V14.01,2013-05-04 02:37:00,
2013-05-03 22:42:00,56.4,40.7,30.27,SE,132,0.0,0.0,56,-99.99,,,-99.99,VWS V14.01,2013-05-04 02:42:00,
2013-05-03 22:47:00,56.1,40.5,30.27,SE,132,0.0,0.0,56,-99.99,,,-99.99,VWS V14.01,2013-05-04 02:47:00,
2013-05-03 22:52:00,56.0,40.5,30.27,SE,132,0.0,0.0,56,-99.99,,,-99.99,VWS V14.01,2013-05-04 02:52:00,
2013-05-03 22:57:00,55.8,40.5,30.27,SE,132,0.0,0.0,56,-99.99,,,-99.99,VWS V14.01,2013-05-04 02:57:00,
2013-05-03 23:02:00,55.8,40.6,30.27,SE,132,0.0,0.0,56,-99.99,,,-99.99,VWS V14.01,2013-05-04 03:02:00,
2013-05-03 23:07:00,55.7,40.6,30.27,SE,132,0.0,0.0,57,-99.99,,,-99.99,VWS V14.01,2013-05-04 03:07:00,
2013-05-03 23:12:00,55.6,40.6,30.27,East,96,3.4,4.9,57,-99.99,,,-99.99,VWS V14.01,2013-05-04 03:12:00,
2013-05-03 23:17:00,55.6,40.6,30.27,SE,134,0.0,0.0,57,-99.99,,,-99.99,VWS V14.01,2013-05-04 03:17:00,
2013-05-03 23:22:00,55.4,40.8,30.27,ESE,120,4.7,5.8,58,-99.99,,,-99.99,VWS V14.01,2013-05-04 03:22:00,
2013-05-03 23:26:00,55.3,40.8,30.27,ESE,120,0.0,0.0,58,-99.99,,,-99.99,VWS V14.01,2013-05-04 03:26:00,
2013-05-03 23:31:00,55.0,40.8,30.27,ESE,110,0.0,4.3,59,-99.99,,,-99.99,VWS V14.01,2013-05-04 03:31:00,
2013-05-03 23:36:00,54.8,40.9,30.27,East,101,0.0,0.0,59,-99.99,,,-99.99,VWS V14.01,2013-05-04 03:36:00,
2013-05-03 23:41:00,54.7,40.9,30.27,SE,145,2.1,7.8,60,-99.99,,,-99.99,VWS V14.01,2013-05-04 03:41:00,
2013-05-03 23:46:00,54.7,41.2,30.27,SSE,156,1.2,6.4,60,-99.99,,,-99.99,VWS V14.01,2013-05-04 03:46:00,
2013-05-03 23:51:00,54.6,41.1,30.27,SE,134,5.2,5.2,60,-99.99,,,-99.99,VWS V14.01,2013-05-04 03:51:00,
2013-05-03 23:56:00,54.5,41.3,30.27,ESE,122,5.8,6.5,61,-99.99,,,-99.99,VWS V14.01,2013-05-04 03:56:00,